STARLINK-32168, 60335

Orbit data source: Space-Track

STARLINK-32168, 60335 is a payload satellite owned by SpaceX/Seattle (US) in LEO that was launched on Fri, 02 Aug 2024 UTC via an FALCON 9 launch vehicle from the Air Force Eastern Test Range (AFETR). Payload-class satellites include a variety of spacecraft equipped with specific instruments for various scientific and technological missions. These include communications satellites like Starlink; space stations such as the ISS; scientific satellites like the Hubble; Earth observation satellites from companies like Planet Labs, Umbra, and HawkEye 360; GPS; miniature CubeSats for education and research; and military/defense satellites.

Loading next visibility...
Identifier
60335, 2024-136G
Orbit
LEO
Country
Flag of USUS
Related business
Manufacturer
SpaceX/Seattle
Mission
Operational Commercial Communications
Bus & Motor
STARLINK V2M, Unknown motor
Mass
730 kg wet, ~700 kg dry
Launch date (UTC)
2024-08-02 (1 year ago)
Launch vehicle
FALCON 9
Launch site
Air Force Eastern Test Range (AFETR)
Object type
Payload
Rocket body
Debris
Shape & HBR
Box + 2 Pan, 17.7 m
Radar Cross Section
33.884 m², Large (>1 m²)

Expand to show TLE details & history
Last TLE update: 1 day ago

TLE from 1 day ago
0 STARLINK-32168
1 60335U 24136G   25291.63637314  .00001944  00000-0  77764-4 0  9998
2 60335  53.1610  15.6282 0001348  93.9544 266.1611 15.30189046 67912
Epoch: 2025-10-18T15:16Z
TLE epoch observation values (Epoch: 2025-10-18T15:16:22.639Z)
Latitude
-0°
Longitude
119.16932°
Altitude
476.21 km
Speed
7.629 km/s
True Right ascension
01h 02m 30s
True Declination
0° 00' 00"
Sunlit
Object was in full shadow at epoch
Visualization orbit readout
Latitude
Unknown
Longitude
Unknown
Altitude
Unknown
Speed
Unknown
Apparent Right ascension
Unknown
Apparent Declination
Unknown
Sunlit
N/A
Visualization observer readout
Local Sidereal Time
18:30:32
Azimuth
Unknown
Elevation
Unknown
Doppler factor
Unknown
Orbital elements
Apogee altitude
476.428 km
Perigee altitude
474.58 km
Semi-major axis
6,853.641 km
Eccentricity
0.00013
Inclination
53.161°
RAAN
15.6282°
Arg. of periapsis
93.9544°
True anomaly
266.14569°
Mean anomaly
266.1611°
Eccentric anomaly
266.15339°
Mean motion
3.82526 °/min
Orbital period
94.11 mins
BSTAR
0.000077764
Loading maneuver chart data...
Computing Atmospheric mass density...
Loading historical data...
Loading historical data...
Loading historical data...
Loading historical data...
Loading historical data...
Loading historical data...
Loading historical data...

Documentation

Showing up to 5 results
|